Flag for U.S.A. Weather past 2 weeks in Lakeland, Florida, U.S.A.

Now
77 °F

Warm.


Feels Like: 78 °F
Forecast: 75 / 90 °F
Wind: No wind

Location: Lakeland Regional

Current Time: Jul 28, 2014 at 12:51:44 AM

Latest Report: Jul 28, 2014 at 12:15 AM


Visibility: N/A

Pressure: 30.08 "Hg

Humidity: 94%

Dew point: 75 °F

Location of LakelandLocation

Historic Weather in Lakeland — Graph

°F

Lakeland temperature yesterday

Maximum temperature yesterday: 93 °F (at 2:50 PM)
Minimum temperature yesterday: 73 °F (at 3:55 AM)
Average temperature yesterday: 81 °F

Past Weeks' High & Low Weather Summary

 TemperatureHumidityPressure
High93 °F (Jul 23, 3:51 PM)100% (Jul 12, 11:15 PM)30.14 "Hg (Jul 12, 11:15 PM)
Low72 °F (Jul 13, 3:15 AM)41% (Jul 18, 3:50 PM)29.94 "Hg (Jul 16, 3:55 AM)
Average78 °F86%30.05 "Hg
* Reported Jul 12 11:15 PM — Jul 27 11:55 PM, Lakeland, Weather by CustomWeather, © 2014

Note: Actual official high and low records may vary slightly from our data, if they occured in-between our weather recording intervals... More about our weather records

Advertising

Lakeland weather history for previous 24 hours

 ConditionsComfort  
Time TempWeatherWind HumidityBarometerVisibility
11:55 PM
Jul 27
79 °FClear.No wind84%30.08 "HgN/A
11:35 PM79 °FClear.No wind84%30.08 "HgN/A
11:15 PM79 °FClear.No wind79%30.08 "HgN/A
10:55 PM79 °FClear.No wind84%30.08 "HgN/A
10:15 PM81 °FClear.No wind74%30.08 "HgN/A
9:50 PM81 °FPassing clouds.No wind79%30.08 "Hg10 mi
8:50 PM82 °FBroken clouds.3 mph74%30.07 "Hg10 mi
7:50 PM88 °FBroken clouds.5 mph62%30.07 "Hg15 mi
6:50 PM88 °FScattered clouds.15 mph59%30.05 "Hg15 mi
5:50 PM91 °FBroken clouds.7 mph49%30.05 "Hg15 mi
4:50 PM93 °FBroken clouds.10 mph47%30.05 "Hg15 mi
3:50 PM91 °FBroken clouds.9 mph52%30.06 "Hg15 mi
2:50 PM93 °FBroken clouds.8 mph47%30.08 "Hg15 mi
1:54 PM90 °FScattered clouds.3 mph52%30.09 "Hg15 mi
12:53 PM90 °FBroken clouds.9 mph52%30.11 "Hg15 mi
11:54 AM90 °FBroken clouds.6 mph55%30.12 "Hg12 mi
10:54 AM88 °FPartly sunny.6 mph59%30.12 "Hg12 mi
9:50 AM84 °FScattered clouds.No wind74%30.12 "Hg10 mi
8:50 AM81 °FSunny.3 mph94%30.11 "Hg10 mi
7:51 AM77 °FScattered clouds.No wind100%30.10 "Hg10 mi
6:51 AM75 °FPassing clouds.No wind100%30.09 "Hg7 mi
5:56 AM73 °FClear.5 mph100%30.08 "Hg7 mi
5:35 AM75 °FMild.No wind100%30.08 "HgN/A
5:15 AM75 °FMild.No wind100%30.08 "HgN/A
4:55 AM75 °FMild.No wind100%30.08 "HgN/A
4:35 AM75 °FMild.No wind100%30.08 "HgN/A
4:15 AM75 °FMild.No wind100%30.08 "HgN/A
3:55 AM73 °FMild.3 mph100%30.07 "HgN/A
3:35 AM75 °FMild.3 mph100%30.07 "HgN/A
3:15 AM77 °FWarm.No wind100%30.07 "HgN/A
2:55 AM77 °FWarm.No wind100%30.08 "HgN/A
2:35 AM77 °FWarm.No wind100%30.08 "HgN/A
2:15 AM77 °FWarm.No wind100%30.08 "HgN/A
1:55 AM77 °FWarm.No wind100%30.09 "HgN/A
1:15 AM77 °FWarm.No wind100%30.10 "HgN/A
12:15 AM79 °FWarm.3 mph89%30.08 "HgN/A
Weather by CustomWeather, © 2014

See weather overviewHow to use our weather pages